User: anonymous   Login
Location: Pine Mountain Observatory
(43.7910°N, 120.9377°W)
Time: 20:19:40
(UTC-08:00)
Language:

APEX - Orbit

View from above orbital plane
View from above orbital plane
View from above satellite
View from above satellite

Ground track
Ground track

The orbit data is extracted from the following two-line orbital elements,

1 23191U 94046A   15062.29192686  .00027607  00000-0  10238-2 0  9994
2 23191 069.9364 331.1188 0698641 313.7964 183.0254 14.15509832997014
Epoch (UTC): 03 March 2015 07:00:22
Eccentricity: 0.0698641
inclination: 69.9364°
perigee height: 336 km
apogee height: 1345 km
right ascension of ascending node: 331.1188°
argument of perigee: 313.7964°
revolutions per day: 14.15509832
mean anomaly at epoch: 183.0254°
orbit number at epoch: 99701

The dashed part of the orbit path shows where the satellite is in the earth's shadow,  

DLR